TimeCST,TemperatureF,Dew PointF,Humidity,Sea Level PressureIn,VisibilityMPH,Wind Direction,Wind SpeedMPH,Gust SpeedMPH,PrecipitationIn,Events,Conditions,WindDirDegrees,DateUTC
12:15 AM,26.6,19.4,74,29.53,10.0,SW,8.1,-,N/A,,Overcast,220,2014-01-12 06:15:00
12:35 AM,26.6,19.4,74,29.53,10.0,SW,10.4,-,N/A,,Overcast,230,2014-01-12 06:35:00
12:55 AM,26.6,19.4,74,29.53,10.0,SW,9.2,-,N/A,,Overcast,230,2014-01-12 06:55:00
1:15 AM,26.6,19.4,74,29.52,10.0,SW,9.2,-,N/A,,Overcast,230,2014-01-12 07:15:00
1:35 AM,26.6,19.4,74,29.53,10.0,SW,9.2,-,N/A,,Overcast,220,2014-01-12 07:35:00
1:55 AM,26.6,19.4,74,29.53,10.0,SSW,8.1,-,N/A,,Overcast,210,2014-01-12 07:55:00
2:15 AM,26.6,19.4,74,29.53,10.0,SSW,5.8,-,N/A,,Overcast,210,2014-01-12 08:15:00
2:35 AM,24.8,19.4,80,29.54,10.0,SW,8.1,-,N/A,,Mostly Cloudy,220,2014-01-12 08:35:00
2:55 AM,24.8,19.4,80,29.53,10.0,SSW,5.8,-,N/A,,Scattered Clouds,210,2014-01-12 08:55:00
3:15 AM,24.8,19.4,80,29.53,10.0,SSW,4.6,-,N/A,,Partly Cloudy,210,2014-01-12 09:15:00
3:35 AM,24.8,19.4,80,29.52,10.0,South,4.6,-,N/A,,Clear,190,2014-01-12 09:35:00
3:55 AM,24.8,19.4,80,29.51,10.0,South,4.6,-,N/A,,Clear,190,2014-01-12 09:55:00
4:15 AM,24.8,19.4,80,29.51,10.0,South,6.9,17.3,N/A,,Clear,190,2014-01-12 10:15:00
4:35 AM,24.8,19.4,80,29.51,10.0,South,8.1,-,N/A,,Clear,190,2014-01-12 10:35:00
4:55 AM,24.8,19.4,80,29.50,10.0,South,8.1,-,N/A,,Clear,180,2014-01-12 10:55:00
5:15 AM,24.8,19.4,80,29.49,10.0,South,9.2,-,N/A,,Clear,180,2014-01-12 11:15:00
5:35 AM,24.8,19.4,80,29.49,10.0,South,10.4,-,N/A,,Scattered Clouds,180,2014-01-12 11:35:00
5:55 AM,24.8,19.4,80,29.49,10.0,South,11.5,-,N/A,,Mostly Cloudy,180,2014-01-12 11:55:00
6:15 AM,24.8,19.4,80,29.47,10.0,South,6.9,-,N/A,,Overcast,170,2014-01-12 12:15:00
6:35 AM,26.6,19.4,74,29.45,10.0,South,9.2,-,N/A,,Overcast,170,2014-01-12 12:35:00
6:55 AM,26.6,19.4,74,29.43,10.0,SSE,8.1,16.1,N/A,,Overcast,160,2014-01-12 12:55:00
7:15 AM,26.6,19.4,74,29.41,10.0,ESE,5.8,-,N/A,,Overcast,110,2014-01-12 13:15:00
7:35 AM,26.6,21.2,80,29.41,10.0,SE,3.5,-,N/A,,Overcast,130,2014-01-12 13:35:00
7:55 AM,26.6,19.4,74,29.40,10.0,Calm,Calm,-,N/A,,Overcast,0,2014-01-12 13:55:00
8:15 AM,28.4,21.2,74,29.40,10.0,ENE,4.6,-,N/A,,Overcast,60,2014-01-12 14:15:00
8:35 AM,28.4,21.2,74,29.39,10.0,South,12.7,21.9,N/A,,Overcast,170,2014-01-12 14:35:00
8:55 AM,30.2,21.2,69,29.37,5.0,SSE,18.4,29.9,N/A,,Overcast,160,2014-01-12 14:55:00
9:15 AM,30.2,21.2,69,29.36,10.0,SSE,18.4,25.3,N/A,,Mostly Cloudy,160,2014-01-12 15:15:00
9:35 AM,30.2,21.2,69,29.35,10.0,South,17.3,27.6,N/A,,Overcast,170,2014-01-12 15:35:00
9:55 AM,30.2,21.2,69,29.34,10.0,South,20.7,26.5,N/A,,Overcast,170,2014-01-12 15:55:00
10:15 AM,30.2,21.2,69,29.36,10.0,South,11.5,24.2,N/A,,Overcast,180,2014-01-12 16:15:00
10:35 AM,30.2,21.2,69,29.36,10.0,South,17.3,24.2,N/A,,Overcast,180,2014-01-12 16:35:00
10:55 AM,30.2,23.0,75,29.36,10.0,South,13.8,23.0,N/A,,Mostly Cloudy,190,2014-01-12 16:55:00
11:15 AM,32.0,23.0,69,29.34,10.0,South,13.8,25.3,N/A,,Overcast,190,2014-01-12 17:15:00
11:35 AM,32.0,23.0,69,29.32,10.0,South,11.5,18.4,N/A,,Overcast,180,2014-01-12 17:35:00
11:55 AM,33.8,24.8,70,29.31,10.0,SSW,18.4,28.8,N/A,,Overcast,200,2014-01-12 17:55:00
12:15 PM,35.6,24.8,65,29.30,10.0,South,18.4,25.3,N/A,,Mostly Cloudy,190,2014-01-12 18:15:00
12:35 PM,35.6,24.8,65,29.30,10.0,SSW,10.4,20.7,N/A,,Mostly Cloudy,200,2014-01-12 18:35:00
12:55 PM,35.6,26.6,70,29.30,10.0,SSW,15.0,25.3,N/A,,Mostly Cloudy,210,2014-01-12 18:55:00
1:15 PM,35.6,24.8,65,29.30,10.0,SW,13.8,20.7,N/A,,Mostly Cloudy,220,2014-01-12 19:15:00
1:35 PM,35.6,26.6,70,29.29,10.0,SSW,13.8,-,N/A,,Overcast,210,2014-01-12 19:35:00
1:55 PM,37.4,26.6,65,29.28,10.0,South,11.5,19.6,N/A,,Overcast,190,2014-01-12 19:55:00
2:15 PM,37.4,24.8,60,29.30,10.0,SW,12.7,-,N/A,,Overcast,220,2014-01-12 20:15:00
2:35 PM,37.4,26.6,65,29.33,10.0,SW,9.2,-,N/A,,Overcast,230,2014-01-12 20:35:00
2:55 PM,37.4,26.6,65,29.32,10.0,SSW,10.4,-,N/A,,Overcast,200,2014-01-12 20:55:00
3:15 PM,37.4,26.6,65,29.32,10.0,SSW,10.4,16.1,N/A,,Overcast,210,2014-01-12 21:15:00
3:35 PM,37.4,26.6,65,29.32,10.0,SSW,10.4,17.3,N/A,,Overcast,200,2014-01-12 21:35:00
3:55 PM,37.4,26.6,65,29.32,10.0,SSW,10.4,18.4,N/A,,Overcast,200,2014-01-12 21:55:00
4:15 PM,37.4,26.6,65,29.33,10.0,SSW,8.1,-,N/A,,Overcast,210,2014-01-12 22:15:00
4:35 PM,37.4,26.6,65,29.34,10.0,SSW,8.1,-,N/A,,Overcast,210,2014-01-12 22:35:00
4:55 PM,37.4,26.6,65,29.33,10.0,SSW,9.2,18.4,0.01,,Scattered Clouds,200,2014-01-12 22:55:00
5:15 PM,37.4,26.6,65,29.33,10.0,SSW,10.4,-,N/A,,Clear,200,2014-01-12 23:15:00
5:35 PM,35.6,26.6,70,29.33,10.0,SSW,9.2,-,0.01,,Clear,210,2014-01-12 23:35:00
5:55 PM,35.6,26.6,70,29.33,10.0,SSW,10.4,-,0.02,,Clear,200,2014-01-12 23:55:00
6:15 PM,35.6,26.6,70,29.33,10.0,SSW,12.7,20.7,N/A,,Clear,200,2014-01-13 00:15:00
6:35 PM,35.6,26.6,70,29.34,10.0,SW,13.8,-,0.01,,Clear,230,2014-01-13 00:35:00
6:55 PM,35.6,26.6,70,29.35,10.0,SW,10.4,-,0.01,,Clear,230,2014-01-13 00:55:00
7:15 PM,35.6,26.6,70,29.36,10.0,SW,10.4,-,N/A,,Clear,220,2014-01-13 01:15:00
7:35 PM,35.6,26.6,70,29.36,10.0,SW,10.4,-,0.01,,Clear,220,2014-01-13 01:35:00
7:55 PM,35.6,26.6,70,29.36,10.0,SW,9.2,-,0.01,,Clear,220,2014-01-13 01:55:00
8:15 PM,35.6,26.6,70,29.36,10.0,SW,8.1,-,0.01,,Clear,230,2014-01-13 02:15:00
8:35 PM,35.6,26.6,70,29.37,10.0,WSW,8.1,-,0.01,,Clear,250,2014-01-13 02:35:00
8:55 PM,35.6,26.6,70,29.38,10.0,WSW,8.1,-,0.01,,Clear,240,2014-01-13 02:55:00
9:15 PM,33.8,26.6,75,29.38,10.0,SSW,5.8,-,N/A,,Clear,210,2014-01-13 03:15:00
9:35 PM,33.8,26.6,75,29.37,10.0,SW,3.5,-,N/A,,Clear,220,2014-01-13 03:35:00
9:55 PM,33.8,26.6,75,29.38,10.0,SW,5.8,-,N/A,,Clear,230,2014-01-13 03:55:00
10:15 PM,33.8,26.6,75,29.38,10.0,SSW,5.8,-,N/A,,Clear,210,2014-01-13 04:15:00
10:35 PM,33.8,26.6,75,29.38,10.0,SW,8.1,-,N/A,,Clear,220,2014-01-13 04:35:00
10:55 PM,33.8,26.6,75,29.38,10.0,SW,5.8,-,N/A,,Clear,220,2014-01-13 04:55:00
11:15 PM,33.8,26.6,75,29.38,10.0,SW,6.9,-,N/A,,Clear,230,2014-01-13 05:15:00
11:35 PM,33.8,26.6,75,29.38,10.0,SW,6.9,-,N/A,,Clear,220,2014-01-13 05:35:00
11:55 PM,33.8,26.6,75,29.38,10.0,SSW,6.9,-,N/A,,Clear,210,2014-01-13 05:55:00